TimeEDT,TemperatureF,Dew PointF,Humidity,Sea Level PressureIn,VisibilityMPH,Wind Direction,Wind SpeedMPH,Gust SpeedMPH,PrecipitationIn,Events,Conditions,WindDirDegrees,DateUTC
12:16 AM,80.6,75.2,84,30.01,10.0,Calm,Calm,-,N/A,,Mostly Cloudy,0,2012-09-11 04:16:00
12:53 AM,80.1,75.9,87,30.01,10.0,WNW,5.8,-,0.00,Rain,Light Rain,290,2012-09-11 04:53:00
1:53 AM,79.0,77.0,94,29.99,10.0,West,3.5,-,0.03,,Mostly Cloudy,260,2012-09-11 05:53:00
2:53 AM,79.0,77.0,94,30.00,10.0,West,3.5,-,N/A,,Mostly Cloudy,280,2012-09-11 06:53:00
3:53 AM,79.0,75.9,90,29.99,10.0,NW,3.5,-,N/A,,Partly Cloudy,320,2012-09-11 07:53:00
4:53 AM,78.1,75.9,93,29.99,10.0,NNW,3.5,-,N/A,,Clear,340,2012-09-11 08:53:00
5:53 AM,79.0,75.0,88,29.99,10.0,Calm,Calm,-,N/A,,Clear,0,2012-09-11 09:53:00
6:53 AM,78.1,75.0,90,30.01,10.0,Calm,Calm,-,N/A,,Partly Cloudy,0,2012-09-11 10:53:00
7:53 AM,79.0,75.0,88,30.02,10.0,NNW,4.6,-,N/A,,Partly Cloudy,340,2012-09-11 11:53:00
8:53 AM,82.0,75.0,79,30.04,10.0,North,4.6,-,N/A,,Partly Cloudy,350,2012-09-11 12:53:00
9:53 AM,86.0,75.0,70,30.05,10.0,NNW,4.6,-,N/A,,Partly Cloudy,340,2012-09-11 13:53:00
10:53 AM,89.1,75.0,63,30.06,10.0,NNE,8.1,-,N/A,,Scattered Clouds,30,2012-09-11 14:53:00
11:53 AM,89.1,73.0,59,30.06,10.0,ENE,6.9,-,N/A,,Scattered Clouds,70,2012-09-11 15:53:00
12:53 PM,89.1,73.9,61,30.05,10.0,East,11.5,-,N/A,,Partly Cloudy,90,2012-09-11 16:53:00
1:53 PM,89.1,75.0,63,30.03,10.0,NE,11.5,-,N/A,,Partly Cloudy,50,2012-09-11 17:53:00
2:46 PM,87.8,75.2,66,30.01,10.0,East,13.8,-,N/A,Thunderstorm,Thunderstorm,90,2012-09-11 18:46:00
2:53 PM,87.1,75.0,67,30.02,10.0,ENE,13.8,-,N/A,Thunderstorm,Thunderstorm,60,2012-09-11 18:53:00
3:53 PM,84.9,75.0,72,30.01,10.0,ENE,15.0,-,0.00,Rain-Thunderstorm,Light Thunderstorms and Rain,60,2012-09-11 19:53:00
4:05 PM,84.2,75.2,74,30.00,10.0,ENE,11.5,-,0.00,Rain,Light Rain,60,2012-09-11 20:05:00
4:53 PM,84.0,75.9,76,30.01,10.0,ENE,11.5,-,0.00,Rain,Light Rain,60,2012-09-11 20:53:00
5:53 PM,84.9,75.0,72,30.00,10.0,ENE,19.6,27.6,0.00,,Mostly Cloudy,70,2012-09-11 21:53:00
6:53 PM,84.0,75.0,74,30.01,10.0,East,18.4,-,N/A,,Mostly Cloudy,90,2012-09-11 22:53:00
7:53 PM,84.0,75.0,74,30.03,10.0,ENE,13.8,-,N/A,,Mostly Cloudy,70,2012-09-11 23:53:00
8:53 PM,84.0,75.0,74,30.04,10.0,East,11.5,-,N/A,,Scattered Clouds,90,2012-09-12 00:53:00
9:53 PM,84.0,75.0,74,30.05,10.0,East,11.5,-,N/A,,Partly Cloudy,100,2012-09-12 01:53:00
10:53 PM,82.9,73.9,74,30.06,10.0,East,12.7,-,0.00,,Scattered Clouds,90,2012-09-12 02:53:00
11:53 PM,84.0,73.0,69,30.05,10.0,East,11.5,-,N/A,,Scattered Clouds,80,2012-09-12 03:53:00